Погода в Старках

Россия / Калужская область     54°45′10″N   36°00′19″E
темп.,
°C
ветер,
м/с
пор.,
м/с
влажн.,
%
обл.,
%
осадки,
мм/ч
давл.,
гПа
погр.,
м
14 июня, пн
пн1400:00+14ююв229494 0.0 100922
03:00+14ююв229594 0.0 101115
06:00+15ю12936 0.0 101271
09:00+20ююз237731 0.0 1014516
12:00+24юз236040 0.1 10141344
15:00+24юз23625 1.9 10141245
18:00+23зсз237336 0.9 1014235
21:00+18ссв118614 1.7 101411
15 июня, вт
вт1500:00+16всв11905 0.3 101511
03:00+15ссв11915 0.3 101511
06:00+17ююз00895 0.0 101442
09:00+21зсз11755 0.0 1014454
12:00+25з01595 0.3 10131270
15:00+25ю125752 1.4 10111248
18:00+23зсз237733 2.9 1011319
21:00+18сз228887 3.8 101032
16 июня, ср
ср1600:00+16ссз23931 0.9 101047
03:00+15ссз22940 0.9 101134
06:00+15ссз379234 0.0 1012199
09:00+19с4673100 0.0 1013485
12:00+22с45612 0.0 10141207
15:00+22с466173 0.1 10151207
18:00+21ссв58606 0.0 1016633
21:00+15с3574100 0.0 101874
17 июня, чт
чт1700:00+14ссв3567100 0.0 102066
03:00+11ссв347425 0.0 102262
06:00+12св23785 0.0 1023105
09:00+18св22625 0.0 1024455
12:00+22ссв22480 0.0 10251385
15:00+23ссв22455 0.0 10251459
18:00+23всв12510 0.0 1025592
21:00+16св226761 0.0 102611
18 июня, пт
пт1800:00+14ю117799 0.0 102710
03:00+13зюз11815 0.0 102710
06:00+15сз11805 0.0 102847
09:00+20ю11620 0.0 1028383
12:00+24ююз22495 0.0 10281396
15:00+25юз334946 0.0 10271744
18:00+24юз34615 0.0 1027586
21:00+18ююз33775 0.0 102735